Jamaica, NY

1:48 PM EDT on September 26, 2016 (GMT -0400)
Kennedy International

Weather History for KJFK - January, 2013

Change the Weather History Date:

Thursday, January 24, 2013

  Actual Average Record
Temperature  
Mean Temperature 20 °F 32 °F  
Max Temperature 26 °F 39 °F 64 °F (1967)
Min Temperature 13 °F 26 °F 5 °F (1963)
Degree Days  
Heating Degree Days 45 33  
Month to date heating degree days 692 778  
Since 1 July heating degree days 2243 2447  
Cooling Degree Days 0 0  
Month to date cooling degree days 0 0  
Year to date cooling degree days 0 0  
Moisture  
Dew Point -4 °F    
Average Humidity 41    
Maximum Humidity 58    
Minimum Humidity 24    
Precipitation  
Precipitation 0.00 in 0.09 in 1.85 in (1979)
Month to date precipitation 1.64 2.50  
Year to date precipitation 1.64 2.50  
Snow  
Snow 0.00 in 0.10 in 3.40 in (2015)
Month to date snowfall 0.2 4.7  
Since 1 July snowfall 4.9 9.6  
Snow Depth 0.00 in    
Sea Level Pressure  
Sea Level Pressure 30.26 in    
Wind  
Wind Speed 16 mph (NNW)    
Max Wind Speed 33 mph    
Max Gust Speed 43 mph    
Visibility 10 miles    
Events      
T = Trace of Precipitation, MM = Missing Value Source: NWS Daily Summary

Daily Weather History Graph

Daily Weather History Graph

Search for Another Location

Airport or City:

Trip Planner

Search our weather history database for the weather conditions in past years. The results will help you decide how hot, cold, wet, or windy it might be!

Date:

Astronomy

Jan. 24, 2013 Rise Set
Actual Time 7:11 AM EST 5:03 PM EST
Civil Twilight 6:42 AM EST 5:32 PM EST
Nautical Twilight 6:08 AM EST 6:06 PM EST
Astronomical Twilight 5:36 AM EST 6:38 PM EST
Moon 3:03 PM EST (1/24) 5:07 AM EST (1/24)
Length of Visible Light 10h 50m
Length of Day
9h 51m
Waxing Gibbous, 94% of the Moon is Illuminated
Jan 24
Waxing Gibbous
Jan 26
Full
Feb 3
Last Quarter
Feb 10
New
Feb 17
First Quarter

Hourly Weather History & Observations

Time (EST) Temp. Windchill Dew Point Humidity Pressure Visibility Wind Dir Wind Speed Gust Speed Precip Events Conditions
12:51 AM 14.0 °F 8.2 °F -2.9 °F 47% 30.18 in 10.0 mi WNW 3.5 mph - N/A   Overcast
1:51 AM 12.9 °F 6.9 °F -2.0 °F 51% 30.17 in 10.0 mi NE 3.5 mph - N/A   Scattered Clouds
2:51 AM 14.0 °F 6.5 °F -0.9 °F 52% 30.15 in 10.0 mi North 4.6 mph - N/A   Scattered Clouds
3:51 AM 14.0 °F 5.1 °F -2.0 °F 49% 30.15 in 10.0 mi North 5.8 mph - N/A   Partly Cloudy
4:51 AM 15.1 °F 6.4 °F -0.9 °F 49% 30.15 in 10.0 mi North 5.8 mph - N/A   Mostly Cloudy
5:51 AM 15.1 °F 4.2 °F -0.9 °F 49% 30.17 in 10.0 mi North 8.1 mph - N/A   Overcast
6:51 AM 14.0 °F 1.2 °F -0.0 °F 54% 30.19 in 10.0 mi North 10.4 mph - N/A   Mostly Cloudy
7:51 AM 14.0 °F 0.5 °F 1.0 °F 56% 30.20 in 10.0 mi NNW 11.5 mph - N/A   Mostly Cloudy
8:51 AM 17.1 °F 2.5 °F 1.0 °F 50% 30.22 in 10.0 mi NNW 15.0 mph 24.2 mph N/A   Scattered Clouds
9:51 AM 19.0 °F 5.0 °F -0.9 °F 42% 30.23 in 10.0 mi North 15.0 mph 20.7 mph N/A   Scattered Clouds
10:51 AM 21.0 °F 6.2 °F -4.0 °F 33% 30.25 in 10.0 mi NNW 18.4 mph - N/A   Scattered Clouds
11:51 AM 23.0 °F 8.3 °F -9.0 °F 24% 30.23 in 10.0 mi NNW 19.6 mph - N/A   Partly Cloudy
12:51 PM 23.0 °F 6.9 °F -9.0 °F 24% 30.23 in 10.0 mi NNW 24.2 mph 42.6 mph N/A   Partly Cloudy
1:51 PM 24.1 °F 7.4 °F -8.0 °F 24% 30.24 in 10.0 mi NNW 27.6 mph 39.1 mph N/A   Scattered Clouds
2:51 PM 24.1 °F 7.4 °F -8.0 °F 24% 30.26 in 10.0 mi NW 27.6 mph 33.4 mph N/A   Partly Cloudy
3:51 PM 23.0 °F 7.2 °F -7.1 °F 27% 30.29 in 10.0 mi NW 23.0 mph 35.7 mph N/A   Partly Cloudy
4:51 PM 21.9 °F 7.3 °F -6.0 °F 29% 30.31 in 10.0 mi WNW 18.4 mph 29.9 mph N/A   Partly Cloudy
5:51 PM 21.0 °F 6.6 °F -5.1 °F 32% 30.35 in 10.0 mi WNW 17.3 mph 29.9 mph N/A   Partly Cloudy
6:51 PM 21.0 °F 5.7 °F -5.1 °F 32% 30.37 in 10.0 mi WNW 19.6 mph 31.1 mph N/A   Clear
7:51 PM 19.9 °F 3.2 °F -7.1 °F 30% 30.38 in 10.0 mi WNW 23.0 mph 28.8 mph N/A   Clear
8:51 PM 18.0 °F 3.1 °F -4.0 °F 38% 30.38 in 10.0 mi NW 16.1 mph 20.7 mph N/A   Clear
9:51 PM 18.0 °F 2.2 °F -4.0 °F 38% 30.39 in 10.0 mi NW 18.4 mph 31.1 mph N/A   Clear
10:51 PM 17.1 °F 0.6 °F -4.0 °F 39% 30.40 in 10.0 mi WNW 19.6 mph 29.9 mph N/A   Clear
11:51 PM 17.1 °F 2.0 °F -2.9 °F 41% 30.40 in 10.0 mi NW 16.1 mph - N/A   Clear